Regional Weather Roundup
Issued by NWS

Home | Current Version | Previous Version | Graphics & Text | Print | Product List | Glossary On
Versions: 1 2 3 4 5 6 7 8 9 10 11 12 13 14 15 16 17 18 19 20 21 22 23 24 25 26 27 28
000
ASUS45 KTFX 221010
RWRMT
MONTANA REGIONAL WEATHER ROUNDUP
NATIONAL WEATHER SERVICE GREAT FALLS MT
400 AM MDT TUE MAY 22 2018

NOTE: "FAIR" INDICATES FEW OR NO CLOUDS BELOW 12000 FEET WITH NO
SIGNIFICANT WEATHER AND/OR OBSTRUCTIONS TO VISIBILITY.

MTZ001>007-043-221100-
WEST OF THE DIVIDE

CITY           SKY/WX    TMP DP  RH WIND       PRES   REMARKS
KALISPELL      FAIR      45  44  97 W5        29.97R
MISSOULA       FAIR      51  47  86 W3        29.99R
BUTTE          MOCLDY    48  44  86 E5        30.05S
MULLAN PASS    FAIR      51  42  71 N6        30.06S
ANACONDA         N/A     46  43  87 SW5       30.04S
DEER LODGE       N/A     48  46  93 CALM      30.05R
HAMILTON         N/A     48  45  87 MISG      30.00S
PLAINS           N/A     51  47  86 CALM      29.99R
RONAN            N/A     48  46  93 NE5       29.98R
$$

MTZ008-052>055-221100-
SOUTHWEST MONTANA

CITY           SKY/WX    TMP DP  RH WIND       PRES   REMARKS
BOZEMAN        MOCLDY    47  46  97 CALM      30.01S
DILLON         FAIR      45  43  93 S6        30.02S
ENNIS          PTCLDY    43  41  93 E3        30.06F
W YELLOWSTONE  FAIR      37  37 100 CALM      30.07R
TWIN BRIDGES     N/A     49  44  83 N2        30.01R
$$

MTZ009-010-012-014-046-048-049-054-221100-
EAST SLOPES AND CENTRAL MONTANA

CITY           SKY/WX    TMP DP  RH WIND       PRES   REMARKS
CUT BANK       FAIR      45  42  89 NW6       29.98S
GREAT FALLS    CLOUDY    58  50  75 SW9       29.97R
MALMSTROM AFB  MOCLDY    57  51  79 SW3       29.96R
HELENA         FAIR      55  49  80 CALM      29.98S
AUGUSTA        MOCLDY    55  44  64 N6        29.99S
BOWMANS CRNR   MOCLDY    53  45  73 W6        29.98S
CHOTEAU          N/A     55  46  71 NW8       29.99S
POWER          MOCLDY    60  43  52 N12       29.96R
RAYNESFORD     CLOUDY    54  49  84 CALM      29.98R
ULM            CLOUDY    54  52  92 SW3       29.97R
WHITE SULPHUR    N/A     45  45 100 CALM      30.01R
$$

MTZ011-013-016-021-045-047-050-051-221100-
NORTH CENTRAL MONTANA

CITY           SKY/WX    TMP DP  RH WIND       PRES   REMARKS
HAVRE          FAIR      54  49  83 SW8       29.92R
LEWISTOWN      FAIR      51  48  89 S6        29.98R
N BAR RANCH    CLOUDY    48  46  93 NW6       30.02S
CHINOOK          N/A     57  52  82 CALM      29.91R
DENTON         MOCLDY    54  51  87 S7        29.92S
GEYSER         CLOUDY    56  47  70 SW10      29.97R
GRASS RANGE    MOCLDY    53  48  84 SW8       29.94R
JUDITH GAP     MOCLDY    50  46  88 S7        29.99R
ROY            MOCLDY    57  50  79 SW6       29.94R
STANFORD       CLOUDY    55  46  72 W7        29.98R
WINIFRED       CLOUDY    58  49  72 SW6       29.94S
$$

MTZ017>020-022>027-061-062-221100-
NORTHEAST MONTANA

CITY           SKY/WX    TMP DP  RH WIND       PRES   REMARKS
GLASGOW        FAIR      61  49  64 SW5       29.87S
GLENDIVE       FAIR      55  49  80 SW3       29.91R
JORDAN           N/A     59  54  83 N5        29.90R
MALTA          MOCLDY    59  50  72 CALM      29.87R
SIDNEY         FAIR      50  47  89 CALM      29.88S
WOLF POINT     FAIR      59  53  80 CALM      29.86S
PLENTYWOOD       N/A     61  45  55 CALM      29.86F
POPLAR           N/A     55  50  82 N3        29.87R
SCOBEY           N/A     55  42  61 CALM      29.87S
$$

MTZ028>42-056>058-221100-
SOUTHCENTRAL AND SOUTHEAST MONTANA

CITY           SKY/WX    TMP DP  RH WIND       PRES   REMARKS
BAKER          FAIR      51  50  96 SE5       29.92S
BILLINGS       FAIR      54  50  86 CALM      29.97R
LIVINGSTON     FAIR      48  46  93 CALM      30.00S
MILES CITY     LGT RAIN  60  58  92 SE12G20   29.90S
BIG TIMBER     PTCLDY    50  48  93 MISG      30.00S
EKALAKA          N/A     54  48  80 W6        29.93R
FORSYTH          N/A     59  59 100 SE6       29.91S
HARLOWTON      MOCLDY    51  48  89 NW9       29.98S
LAUREL           N/A     52  50  93 S5        29.98R
$$

REGIONAL REPORTS...DAKOTAS

CITY           SKY/WX    TMP DP  RH WIND       PRES   REMARKS
WILLISTON      FAIR      49  44  83 CALM      29.88S
MINOT          FAIR      57  48  72 S7        29.89R
DICKINSON      FAIR      51  32  48 S9        29.89F
BEACH          FAIR      50  50 100 S7        29.94S
CROSBY         FAIR      54  43  66 S13       29.87S
TIOGA          FAIR      52  41  66 CALM      29.91R
WATFORD CITY   FAIR      50  43  76 SE3       29.89R
BISMARCK       FAIR      50  49  96 E6        29.93S
GRAND FORKS    FAIR      51  51 100 S6        29.95S
FARGO          FAIR      53  52  96 SE6       29.98R
BUFFALO SD       N/A     55  46  71 NE5       29.85S
RAPID CITY     FAIR      50  48  93 MISG      29.91R
$$

REGIONAL REPORTS...WYOMING/IDAHO/WASHINGTON

CITY           SKY/WX    TMP DP  RH WIND       PRES   REMARKS
GILLETTE       FAIR      48  44  86 VRB3      29.97S
SHERIDAN       FAIR      47  44  90 W5        29.95F
BUFFALO WY     FAIR      50  42  74 W7        29.99F
CODY           FAIR      46  42  86 S5        30.03R
YELLOWSTONE LA   N/A     31  29  92 CALM      30.14S
IDAHO FALLS    FAIR      48  44  86 CALM      29.97S
SALMON         FAIR      51  48  89 CALM      29.98S
BOISE          FAIR      56  51  84 CALM      29.87S
SPOKANE        FAIR      58  51  78 S7        29.94S
$$

REGIONAL REPORTS...ALBERTA

CITY           SKY/WX    TMP DP  RH WIND       PRES   REMARKS
CALGARY        MOCLDY    52  41  66 NW2       29.99S
CARDSTON         N/A     48  43  81 W1          N/A
EDMONTON       CLEAR     52  39  62 W7        29.92R
FORT MCMURRAY  CLEAR     55  45  67 VRB2      29.83R
HIGH LEVEL     CLEAR     57  41  54 S3        29.73S
LETHBRIDGE     CLEAR     46  43  87 SW6       29.96R
LLOYDMINSTER   MOCLDY    54  43  66 NW6       29.90R
MEDICINE HAT   CLEAR     50  43  76 S2        29.92R
PEACE RIVER    PTCLDY    46  34  61 SW6       29.88R
PINCHER CREEK  CLEAR     45  37  76 W8        30.00R
$$

REGIONAL REPORTS...SASKATCHEWAN

CITY           SKY/WX    TMP DP  RH WIND       PRES   REMARKS
CORONACH         N/A     50  46  87 NW7         N/A
CYPRESS HILLS    N/A     57  37  47 N6          N/A
ESTEVAN        PTCLDY    57  39  51 S9        29.87R
PRINCE ALBERT  MOCLDY    45  43  93 E5        29.85S
REGINA         PTCLDY    55  41  58 SW5       29.84S
ROCKGLEN         N/A     54  43  66 N7          N/A
SASKATOON      PTCLDY    54  46  76 N10       29.86R
SWIFT CURRENT  MOCLDY    57  45  62 W8        29.88R
VAL MARIE        N/A     48  43  81 NE2         N/A
$$




USA.gov is the U.S. government's official web portal to all federal, state and local government web resources and services.